{"data":{"norad_id":56374,"epoch":"2026-05-24T23:43:16.383648Z","epoch_age_seconds":72701,"freshness":"FRESH","line1":"1 56374U 23061A   26144.98838407  .00000177  00000+0  15944-4 0  9992","line2":"2 56374  43.0017 127.4241 0001028 270.1455  89.9279 15.27577997169513","mean_motion":15.27577997,"eccentricity":0.0001028,"inclination_deg":43.0017,"raan_deg":127.4241,"arg_perigee_deg":270.1455,"mean_anomaly_deg":89.9279,"bstar":1.5944e-5,"rev_number":16951,"period_min":94.266872318664,"perigee_km":482.34976320154,"apogee_km":483.76042429602,"semimajor_km":6861.1920937488,"source":"CELESTRAK","updated_at":"2026-05-25T13:38:18.010101Z"}}